| time (UTC) | temp F | wind direction | speed knots | gust knots | rain 1hr in | rain 24hr in | rain mn in | humidity % | barometer mb |
| 20260507064606 | 40 | 0.0 | 0.0 | 0.00 | 0.03 | 0.00 | 96 | 1015.9 | |
| 20260507063545 | 40 | 0.0 | 0.0 | 0.00 | 0.05 | 0.00 | 96 | 1015.9 | |
| 20260507062526 | 40 | 0.0 | 0.0 | 0.00 | 0.06 | 0.00 | 96 | 1016.0 | |
| 20260507061626 | 40 | 0.0 | 0.0 | 0.00 | 0.09 | 0.00 | 95 | 1016.1 | |
| 20260507060525 | 40 | 0.0 | 0.0 | 0.00 | 0.09 | 0.00 | 95 | 1016.1 | |
| 20260507055526 | 40 | 0.0 | 0.0 | 0.00 | 0.09 | 0.00 | 95 | 1016.1 | |
| 20260507054526 | 40 | 0.0 | 0.0 | 0.00 | 0.09 | 0.00 | 95 | 1016.1 | |
| 20260507053525 | 41 | 0.0 | 0.0 | 0.00 | 0.09 | 0.00 | 95 | 1016.2 | |
| 20260507052526 | 41 | 0.0 | 0.0 | 0.00 | 0.10 | 0.00 | 95 | 1016.1 | |
| 20260507051525 | 41 | 0.0 | 0.0 | 0.00 | 0.11 | 0.00 | 94 | 1016.0 | |
| 20260507050526 | 41 | 0.0 | 0.0 | 0.00 | 0.13 | 0.00 | 94 | 1016.0 | |
| 20260507045546 | 42 | 0.0 | 0.0 | 0.00 | 0.14 | 0.00 | 94 | 1016.0 | |
| 20260507044526 | 42 | 0.0 | 0.0 | 0.00 | 0.15 | 0.00 | 94 | 1016.1 | |
| 20260507043525 | 42 | 0.0 | 0.0 | 0.00 | 0.17 | 0.00 | 93 | 1016.1 | |
| 20260507042526 | 42 | 0.0 | 0.0 | 0.00 | 0.20 | 0.00 | 93 | 1016.1 | |
| 20260507041526 | 42 | 0.0 | 0.0 | 0.00 | 0.24 | 0.00 | 93 | 1016.1 | |
| 20260507040526 | 42 | 0.0 | 0.0 | 0.00 | 0.30 | 0.00 | 92 | 1016.1 | |
| 20260507035526 | 43 | 0.0 | 0.0 | 0.00 | 0.36 | 0.36 | 92 | 1016.0 | |
| 20260507034526 | 43 | 0.0 | 0.0 | 0.00 | 0.38 | 0.36 | 92 | 1016.0 | |
| 20260507033526 | 43 | 0.0 | 0.0 | 0.00 | 0.40 | 0.36 | 91 | 1016.0 | |
| 20260507032526 | 43 | 0.0 | 0.0 | 0.00 | 0.43 | 0.36 | 90 | 1015.9 | |
| 20260507031526 | 44 | 0.0 | 0.0 | 0.00 | 0.45 | 0.36 | 89 | 1015.9 | |
| 20260507030546 | 44 | 0.0 | 0.0 | 0.00 | 0.51 | 0.36 | 89 | 1015.9 | |
| 20260507025526 | 44 | 0.0 | 0.0 | 0.00 | 0.55 | 0.36 | 86 | 1015.9 | |
| 20260507024525 | 44 | 0.0 | 0.0 | 0.00 | 0.57 | 0.36 | 85 | 1015.9 | |
| 20260507023526 | 45 | 0.0 | 0.0 | 0.00 | 0.57 | 0.36 | 85 | 1015.9 | |
| 20260507022526 | 45 | 0.0 | 0.0 | 0.00 | 0.58 | 0.36 | 85 | 1015.8 | |
| 20260507021526 | 46 | 0.0 | 0.0 | 0.00 | 0.59 | 0.36 | 85 | 1015.8 | |
| 20260507020526 | 46 | 0.0 | 0.0 | 0.00 | 0.61 | 0.36 | 83 | 1015.7 | |
| 20260507015526 | 47 | 0.0 | 0.0 | 0.00 | 0.62 | 0.36 | 82 | 1015.5 | |
| 20260507014526 | 47 | 0.0 | 0.0 | 0.00 | 0.63 | 0.36 | 80 | 1015.4 | |
| 20260507013606 | 48 | 0.0 | 0.0 | 0.00 | 0.65 | 0.36 | 78 | 1015.4 | |
| 20260507012526 | 49 | 0.0 | 0.0 | 0.00 | 0.69 | 0.36 | 76 | 1015.3 | |
| 20260507011526 | 49 | 0.0 | 0.0 | 0.00 | 0.71 | 0.36 | 74 | 1015.2 | |
| 20260507010526 | 50 | 0.0 | 0.0 | 0.00 | 0.77 | 0.36 | 72 | 1015.1 | |
| 20260507005526 | 51 | 0.0 | 0.0 | 0.00 | 0.82 | 0.36 | 69 | 1015.1 | |
| 20260507004526 | 52 | 0.0 | 0.0 | 0.00 | 0.86 | 0.36 | 68 | 1015.1 | |
| 20260507003526 | 53 | 0.0 | 0.0 | 0.00 | 0.87 | 0.36 | 66 | 1015.1 | |
| 20260507002526 | 53 | 353 | 0.0 | 1.7 | 0.00 | 0.89 | 0.36 | 65 | 1015.0 |
| 20260507001526 | 54 | 0.0 | 0.0 | 0.00 | 0.93 | 0.36 | 63 | 1014.9 | |
| 20260507000546 | 55 | 18 | 0.0 | 1.7 | 0.00 | 0.97 | 0.36 | 60 | 1014.7 |
| 20260506235526 | 56 | 350 | 1.7 | 4.3 | 0.00 | 1.00 | 0.36 | 58 | 1014.5 |
| 20260506234526 | 57 | 323 | 1.7 | 5.2 | 0.00 | 1.09 | 0.36 | 56 | 1014.5 |
| 20260506233526 | 57 | 9 | 2.6 | 3.5 | 0.00 | 1.13 | 0.36 | 56 | 1014.5 |
| 20260506232526 | 57 | 347 | 2.6 | 4.3 | 0.00 | 1.14 | 0.36 | 55 | 1014.6 |
| 20260506231546 | 57 | 40 | 0.9 | 2.6 | 0.00 | 1.16 | 0.36 | 55 | 1014.6 |
| 20260506230526 | 57 | 9 | 2.6 | 6.1 | 0.00 | 1.21 | 0.36 | 54 | 1014.4 |
| 20260506225526 | 58 | 352 | 3.5 | 7.0 | 0.00 | 1.26 | 0.36 | 52 | 1014.3 |
| 20260506224526 | 58 | 356 | 2.6 | 6.1 | 0.00 | 1.27 | 0.36 | 55 | 1014.3 |
| 20260506223526 | 59 | 1 | 1.7 | 3.5 | 0.00 | 1.27 | 0.36 | 54 | 1014.6 |
| 20260506222526 | 59 | 2 | 3.5 | 7.0 | 0.00 | 1.28 | 0.36 | 54 | 1014.5 |
| 20260506221526 | 60 | 311 | 1.7 | 4.3 | 0.00 | 1.29 | 0.36 | 52 | 1014.5 |
| 20260506220526 | 60 | 244 | 3.5 | 6.1 | 0.00 | 1.31 | 0.36 | 50 | 1014.7 |
| 20260506215527 | 61 | 292 | 1.7 | 5.2 | 0.00 | 1.33 | 0.36 | 50 | 1014.7 |
| 20260506214526 | 60 | 294 | 2.6 | 6.1 | 0.00 | 1.36 | 0.36 | 52 | 1014.7 |
| 20260506213526 | 59 | 321 | 2.6 | 5.2 | 0.00 | 1.39 | 0.36 | 50 | 1014.8 |
| 20260506212526 | 59 | 330 | 2.6 | 5.2 | 0.00 | 1.43 | 0.36 | 51 | 1014.7 |
| 20260506211526 | 59 | 336 | 2.6 | 4.3 | 0.00 | 1.49 | 0.36 | 51 | 1014.6 |
| 20260506210527 | 60 | 358 | 3.5 | 6.1 | 0.00 | 1.52 | 0.36 | 50 | 1014.6 |
| 20260506205526 | 61 | 360 | 3.5 | 7.0 | 0.00 | 1.55 | 0.36 | 49 | 1014.5 |
| 20260506204527 | 61 | 332 | 2.6 | 5.2 | 0.00 | 1.55 | 0.36 | 51 | 1014.4 |
| 20260506203526 | 60 | 11 | 2.6 | 6.1 | 0.00 | 1.55 | 0.36 | 54 | 1014.4 |
| 20260506202526 | 60 | 348 | 2.6 | 5.2 | 0.00 | 1.55 | 0.36 | 55 | 1014.4 |
| 20260506201547 | 60 | 296 | 1.7 | 4.3 | 0.00 | 1.55 | 0.36 | 52 | 1014.4 |
| 20260506200547 | 59 | 8 | 1.7 | 4.3 | 0.00 | 1.55 | 0.36 | 52 | 1014.5 |
| 20260506195526 | 59 | 4 | 2.6 | 5.2 | 0.00 | 1.55 | 0.36 | 52 | 1014.6 |
| 20260506194527 | 59 | 246 | 3.5 | 5.2 | 0.00 | 1.55 | 0.36 | 53 | 1014.6 |
| 20260506193526 | 59 | 34 | 1.7 | 3.5 | 0.00 | 1.55 | 0.36 | 55 | 1014.5 |
| 20260506192527 | 59 | 347 | 2.6 | 5.2 | 0.00 | 1.56 | 0.36 | 55 | 1014.6 |
| 20260506191527 | 60 | 277 | 3.5 | 7.0 | 0.00 | 1.57 | 0.36 | 54 | 1014.5 |
| 20260506190547 | 61 | 351 | 2.6 | 3.5 | 0.00 | 1.58 | 0.36 | 54 | 1014.4 |
| 20260506185547 | 60 | 317 | 1.7 | 5.2 | 0.00 | 1.61 | 0.36 | 57 | 1014.3 |
| 20260506184527 | 59 | 7 | 3.5 | 5.2 | 0.00 | 1.62 | 0.36 | 55 | 1014.3 |
| 20260506183527 | 59 | 255 | 3.5 | 7.8 | 0.00 | 1.63 | 0.36 | 55 | 1014.3 |
| 20260506182527 | 58 | 15 | 4.3 | 6.1 | 0.00 | 1.65 | 0.36 | 56 | 1014.3 |
| 20260506181527 | 58 | 290 | 1.7 | 3.5 | 0.00 | 1.67 | 0.36 | 57 | 1014.5 |
| 20260506180527 | 58 | 25 | 1.7 | 3.5 | 0.00 | 1.67 | 0.36 | 56 | 1014.4 |
| 20260506175527 | 58 | 7 | 1.7 | 3.5 | 0.00 | 1.67 | 0.36 | 53 | 1014.5 |
| 20260506174527 | 58 | 351 | 2.6 | 5.2 | 0.00 | 1.73 | 0.36 | 54 | 1014.6 |
| 20260506173608 | 57 | 15 | 4.3 | 7.8 | 0.00 | 1.74 | 0.36 | 56 | 1014.6 |
| 20260506172547 | 58 | 360 | 2.6 | 6.1 | 0.00 | 1.74 | 0.36 | 53 | 1014.8 |
| 20260506171547 | 59 | 357 | 2.6 | 5.2 | 0.00 | 1.74 | 0.36 | 52 | 1014.8 |
| 20260506170547 | 60 | 239 | 2.6 | 4.3 | 0.00 | 1.74 | 0.36 | 51 | 1014.9 |
| 20260506165547 | 60 | 355 | 3.5 | 7.0 | 0.00 | 1.74 | 0.36 | 54 | 1014.8 |
| 20260506164527 | 58 | 350 | 2.6 | 5.2 | 0.00 | 1.74 | 0.36 | 58 | 1014.7 |
| 20260506163527 | 56 | 6 | 6.1 | 7.8 | 0.00 | 1.74 | 0.36 | 55 | 1014.6 |
| 20260506162527 | 57 | 1 | 3.5 | 7.8 | 0.00 | 1.74 | 0.36 | 55 | 1014.8 |
| 20260506161527 | 58 | 356 | 4.3 | 10.4 | 0.00 | 1.74 | 0.36 | 57 | 1014.8 |
| 20260506160528 | 56 | 354 | 2.6 | 5.2 | 0.00 | 1.74 | 0.36 | 60 | 1014.8 |
| 20260506155527 | 56 | 14 | 6.1 | 9.6 | 0.00 | 1.74 | 0.36 | 59 | 1014.6 |
| 20260506154527 | 56 | 20 | 2.6 | 5.2 | 0.00 | 1.74 | 0.36 | 63 | 1014.5 |
| 20260506153527 | 56 | 11 | 5.2 | 8.7 | 0.00 | 1.74 | 0.36 | 61 | 1014.4 |
| 20260506152607 | 55 | 9 | 5.2 | 8.7 | 0.00 | 1.74 | 0.36 | 63 | 1014.7 |
| 20260506151527 | 55 | 10 | 3.5 | 6.1 | 0.00 | 1.74 | 0.36 | 64 | 1014.9 |
| 20260506150548 | 55 | 2 | 2.6 | 5.2 | 0.00 | 1.74 | 0.36 | 65 | 1014.6 |
| 20260506145527 | 53 | 15 | 2.6 | 5.2 | 0.00 | 1.74 | 0.36 | 66 | 1014.4 |
| 20260506144527 | 52 | 4 | 3.5 | 7.0 | 0.00 | 1.74 | 0.36 | 69 | 1014.5 |
| 20260506143527 | 52 | 7 | 3.5 | 6.1 | 0.00 | 1.74 | 0.36 | 72 | 1014.3 |
| 20260506142527 | 51 | 7 | 4.3 | 7.0 | 0.00 | 1.74 | 0.36 | 74 | 1013.8 |
| 20260506141527 | 50 | 17 | 5.2 | 7.0 | 0.00 | 1.74 | 0.36 | 75 | 1013.5 |
| 20260506140527 | 49 | 353 | 3.5 | 6.1 | 0.00 | 1.74 | 0.36 | 77 | 1013.3 |
| 20260506135527 | 49 | 18 | 5.2 | 7.8 | 0.00 | 1.74 | 0.36 | 77 | 1013.2 |
| 20260506134528 | 49 | 8 | 3.5 | 5.2 | 0.00 | 1.74 | 0.36 | 80 | 1013.3 |
| 20260506133527 | 49 | 11 | 3.5 | 6.1 | 0.00 | 1.74 | 0.36 | 81 | 1013.5 |
| 20260506132527 | 48 | 2 | 1.7 | 3.5 | 0.00 | 1.74 | 0.36 | 84 | 1013.6 |
| 20260506131528 | 48 | 22 | 0.9 | 2.6 | 0.00 | 1.74 | 0.36 | 86 | 1013.5 |
| 20260506130527 | 47 | 355 | 0.9 | 2.6 | 0.00 | 1.74 | 0.36 | 88 | 1013.5 |
| 20260506125528 | 47 | 349 | 1.7 | 3.5 | 0.00 | 1.75 | 0.36 | 88 | 1013.2 |
| 20260506124547 | 47 | 341 | 0.0 | 1.7 | 0.00 | 1.75 | 0.36 | 91 | 1013.5 |
| 20260506123528 | 46 | 285 | 0.0 | 1.7 | 0.00 | 1.75 | 0.36 | 91 | 1013.3 |
| 20260506122528 | 46 | 319 | 1.7 | 2.6 | 0.00 | 1.75 | 0.36 | 92 | 1013.2 |
| 20260506121527 | 45 | 248 | 0.9 | 3.5 | 0.00 | 1.75 | 0.36 | 93 | 1013.3 |
| 20260506120527 | 45 | 0.0 | 0.0 | 0.00 | 1.75 | 0.36 | 94 | 1013.0 | |
| 20260506115528 | 45 | 314 | 0.9 | 3.5 | 0.00 | 1.75 | 0.36 | 95 | 1012.7 |
| 20260506114527 | 45 | 0.0 | 0.0 | 0.00 | 1.75 | 0.36 | 95 | 1012.4 | |
| 20260506113528 | 44 | 0.0 | 0.0 | 0.00 | 1.75 | 0.36 | 95 | 1012.1 | |
| 20260506112527 | 44 | 0.0 | 0.0 | 0.00 | 1.75 | 0.36 | 96 | 1011.8 | |
| 20260506111548 | 44 | 0.0 | 0.0 | 0.00 | 1.75 | 0.36 | 95 | 1011.4 | |
| 20260506110528 | 44 | 0.0 | 0.0 | 0.00 | 1.75 | 0.36 | 95 | 1011.3 | |
| 20260506105527 | 43 | 0.0 | 0.0 | 0.00 | 1.75 | 0.36 | 95 | 1011.3 | |
| 20260506104528 | 43 | 289 | 0.9 | 1.7 | 0.00 | 1.75 | 0.36 | 95 | 1010.7 |
| 20260506103528 | 43 | 8 | 1.7 | 3.5 | 0.00 | 1.75 | 0.36 | 95 | 1010.7 |
| 20260506102528 | 43 | 356 | 0.9 | 3.5 | 0.00 | 1.76 | 0.36 | 95 | 1011.0 |
| 20260506101528 | 43 | 14 | 0.9 | 2.6 | 0.00 | 1.77 | 0.36 | 94 | 1011.3 |
| 20260506100608 | 43 | 329 | 0.9 | 3.5 | 0.00 | 1.77 | 0.36 | 94 | 1011.1 |
| 20260506095528 | 43 | 270 | 0.9 | 2.6 | 0.00 | 1.78 | 0.36 | 94 | 1010.8 |
| 20260506094528 | 43 | 5 | 0.9 | 2.6 | 0.00 | 1.79 | 0.36 | 94 | 1010.3 |
| 20260506093608 | 43 | 12 | 2.6 | 6.1 | 0.00 | 1.81 | 0.36 | 94 | 1010.1 |
| 20260506092528 | 43 | 2 | 3.5 | 5.2 | 0.00 | 1.84 | 0.36 | 94 | 1010.1 |
| 20260506091528 | 43 | 356 | 3.5 | 5.2 | 0.01 | 1.88 | 0.36 | 94 | 1010.6 |
| 20260506090528 | 44 | 322 | 0.9 | 5.2 | 0.01 | 1.91 | 0.36 | 93 | 1010.8 |
| 20260506085528 | 43 | 349 | 2.6 | 5.2 | 0.01 | 1.95 | 0.36 | 92 | 1010.3 |
| 20260506084528 | 44 | 350 | 3.5 | 7.0 | 0.01 | 1.96 | 0.36 | 92 | 1009.7 |
| 20260506083528 | 44 | 346 | 3.5 | 6.1 | 0.01 | 1.98 | 0.36 | 91 | 1009.8 |
| 20260506082608 | 44 | 7 | 5.2 | 8.7 | 0.01 | 2.01 | 0.36 | 90 | 1009.7 |
| 20260506081528 | 44 | 0 | 6.1 | 8.7 | 0.00 | 2.02 | 0.35 | 90 | 1009.7 |
| 20260506080528 | 44 | 5 | 5.2 | 7.8 | 0.00 | 2.02 | 0.35 | 93 | 1009.9 |
| 20260506073528 | 44 | 338 | 1.7 | 3.5 | 0.04 | 2.02 | 0.35 | 92 | 1009.4 |
| 20260506072528 | 44 | 1 | 5.2 | 8.7 | 0.05 | 2.02 | 0.35 | 90 | 1009.3 |
| 20260506071528 | 44 | 352 | 7.0 | 11.3 | 0.08 | 2.02 | 0.35 | 93 | 1009.2 |
| 20260506070528 | 45 | 14 | 8.7 | 14.8 | 0.08 | 2.02 | 0.35 | 95 | 1009.0 |